Погода в Сантарене

Португалия     39°14′09″N   8°41′22″W
темп.,
°C
ветер,
м/с
пор.,
м/с
влажн.,
%
обл.,
%
осадки,
мм/ч
давл.,
гПа
погр.,
м
31 июля, сб
сб3101:00+16ссз5118499 0.0 1018569
04:00+15ссз613769 0.0 1018818
07:00+15ссз613750 0.0 1018835
10:00+20ссз911484 0.0 10191254
13:00+23ссз10113721 0.0 10191427
16:00+22ссз91140100 0.0 10191265
19:00+20ссз912520 0.0 10191092
22:00+15ссз6138056 0.0 1020665
1 августа, вс
вс101:00+15ссз613822 0.0 1019575
04:00+15сз511840 0.0 1018359
07:00+14сз49935 0.0 1018258
10:00+21ссз575682 0.0 1018852
13:00+26сз7742100 0.0 10171516
16:00+26сз77425 0.0 10161416
19:00+23сз7856100 0.0 1015868
22:00+17зсз369311 0.0 1016141
2 августа, пн
пн201:00+16зсз349719 0.0 101590
04:00+17сз359351 0.0 1015156
07:00+16сз23943 0.0 101557
10:00+23ссз45600 0.0 1015837
13:00+28ссз65380 0.0 10141780
16:00+29сз863715 0.0 10131598
19:00+24ссз8104994 0.0 1014657
22:00+18сз511740 0.0 1015347
3 августа, вт
вт301:00+16сз36873 0.0 1016138
04:00+15зсз24962 0.0 101691
07:00+15сз24965 0.0 1016102
10:00+24сз34537 0.0 1017552
13:00+31сз64324 0.0 10171241
16:00+32сз642463 0.0 10151417
19:00+26ссз79277 0.0 1017707
22:00+18сз5126497 0.0 1019413
4 августа, ср
ср401:00+18сз4118344 0.0 1019329
04:00+18ссз41187100 0.0 1018400
07:00+17ссз369390 0.0 1019165
10:00+25ссз684615 0.0 1019696
13:00+31ссз78265 0.0 10181174
16:00+30ссз910265 0.0 10181133
19:00+25ссз812425 0.0 1018710
22:00+19сз5127024 0.0 1020395